Tracking 28895 objects as of 29-May-2024
HD Live streaming from Space Station
objects crossing your sky now

CRRES DEB (CANISTER)

Track CRRES DEB (CANISTER) now!


NORAD ID: 21594
Int'l Code: 1990-065K
Perigee: 475.5 km
Apogee: 33,313.0 km
Inclination: 17.4 °
Period: 588.6 minutes
Semi major axis: 23265 km
RCS: 0.1675 m2 (medium)
Launch date: July 25, 1990
Source: United States (US)
Launch site: AIR FORCE EASTERN TEST RANGE (AFETR)

Note: This is SATELLITE DEBRIS
Your satellite tracking list
Your tracking list is empty




NASA's NSSDC Master Catalog

Two Line Element Set (TLE):
1 21594U 90065K   24146.86809644 -.00000155  00000-0  84512-4 0  9999
2 21594  17.4241  11.3179 7057209 282.9192  12.3352  2.44647975289190
Source of the keplerian elements: AFSPC